Marshall, MI

5:30 PM EST on January 18, 2018 (GMT -0500)
Brooks

Weather History for KRMY - February, 2014

Change the Weather History Date:

Friday, February 28, 2014

  Actual Average (KBTL) Record (KBTL)
Temperature  
Mean Temperature 2 °F -  
Max Temperature 19 °F 35 °F 59 °F (2016)
Min Temperature -16 °F 21 °F -10 °F (2014)
Degree Days  
Heating Degree Days 64    
Moisture  
Dew Point -7 °F    
Average Humidity 62    
Maximum Humidity 82    
Minimum Humidity 45    
Precipitation  
Precipitation 0.00 in - - ()
Sea Level Pressure  
Sea Level Pressure 30.16 in    
Wind  
Wind Speed 4 mph (SE)    
Max Wind Speed 13 mph    
Max Gust Speed 18 mph    
Visibility 10 miles    
Events      
Averages and records for this station are not official NWS values.
T = Trace of Precipitation, MM = Missing Value Source: NWS Daily Summary

Daily Weather History Graph

Daily Weather History Graph

Search for Another Location

Airport or City:

Trip Planner

Search our weather history database for the weather conditions in past years. The results will help you decide how hot, cold, wet, or windy it might be!

Date:

Astronomy

Feb. 28, 2014 Rise Set
Actual Time 7:16 AM EST 6:28 PM EST
Civil Twilight 6:48 AM EST 6:56 PM EST
Nautical Twilight 6:16 AM EST 7:29 PM EST
Astronomical Twilight 5:43 AM EST 8:01 PM EST
Moon 6:31 AM EST (2/28) 6:04 PM EST (2/28)
Length of Visible Light 12h 08m
Length of Day
11h 11m
Waning Crescent, 1% of the Moon is Illuminated
Feb 28
Waning Crescent
Mar 1
New
Mar 8
First Quarter
Mar 16
Full
Mar 23
Last Quarter

Hourly Weather History & Observations

Time (EST) Temp. Windchill Dew Point Humidity Pressure Visibility Wind Dir Wind Speed Gust Speed Precip Events Conditions
12:14 AM -7.8 °F - -13.7 °F 75% 30.16 in 10.0 mi Calm Calm - N/A   Clear
12:34 AM -9.0 °F - -14.1 °F 79% 30.16 in 10.0 mi Calm Calm - N/A   Clear
12:53 AM -11.6 °F - -16.1 °F 80% 30.17 in 10.0 mi Calm Calm - N/A   Clear
1:14 AM -10.7 °F - -15.5 °F 79% 30.18 in 10.0 mi Calm Calm - N/A   Clear
1:34 AM -12.1 °F - -16.4 °F 81% 30.18 in 10.0 mi Calm Calm - N/A   Clear
1:54 AM -12.6 °F - -17.1 °F 80% 30.19 in 10.0 mi Calm Calm - N/A   Clear
2:14 AM -12.3 °F - -16.4 °F 82% 30.19 in 10.0 mi Calm Calm - N/A   Clear
2:34 AM -13.5 °F - -18.0 °F 80% 30.19 in 10.0 mi Calm Calm - N/A   Clear
2:54 AM -14.1 °F - -18.6 °F 80% 30.20 in 10.0 mi Calm Calm - N/A   Clear
3:14 AM -13.5 °F - -18.0 °F 80% 30.20 in 10.0 mi Calm Calm - N/A   Clear
3:34 AM -14.6 °F - -19.3 °F 79% 30.20 in 10.0 mi Calm Calm - N/A   Clear
3:54 AM -15.2 °F - -19.7 °F 80% 30.19 in 10.0 mi Calm Calm - N/A   Clear
4:14 AM -15.0 °F - -19.7 °F 79% 30.20 in 10.0 mi Calm Calm - N/A   Clear
4:34 AM -15.9 °F - -20.6 °F 79% 30.20 in 10.0 mi Calm Calm - N/A   Clear
4:54 AM -14.1 °F - -18.2 °F 82% 30.20 in 10.0 mi Calm Calm - N/A   Clear
5:14 AM -15.2 °F - -19.7 °F 80% 30.21 in 10.0 mi Calm Calm - N/A   Clear
5:34 AM -16.4 °F - -21.1 °F 79% 30.21 in 10.0 mi Calm Calm - N/A   Clear
5:54 AM -16.6 °F - -21.3 °F 79% 30.22 in 10.0 mi Calm Calm - N/A   Clear
6:14 AM -16.1 °F - -20.7 °F 79% 30.22 in 10.0 mi Calm Calm - N/A   Clear
6:34 AM -12.5 °F -24.4 °F -16.4 °F 82% 30.23 in 10.0 mi ESE 4.6 mph - N/A   Clear
6:54 AM -9.4 °F -20.9 °F -14.8 °F 77% 30.23 in 10.0 mi ESE 4.6 mph - N/A   Clear
7:14 AM -10.1 °F -23.6 °F -15.7 °F 76% 30.23 in 10.0 mi ESE 5.8 mph - N/A   Clear
7:34 AM -9.2 °F -22.5 °F -14.8 °F 76% 30.23 in 10.0 mi ESE 5.8 mph - N/A   Clear
7:54 AM -7.8 °F -20.8 °F -13.9 °F 75% 30.23 in 10.0 mi ESE 5.8 mph - N/A   Clear
8:14 AM -6.2 °F -18.9 °F -13.2 °F 72% 30.22 in 10.0 mi ESE 5.8 mph - N/A   Clear
8:34 AM -4.2 °F -12.6 °F -13.0 °F 66% 30.23 in 10.0 mi East 3.5 mph - N/A   Clear
8:54 AM -1.7 °F -11.8 °F -11.9 °F 62% 30.24 in 10.0 mi ESE 4.6 mph - N/A   Clear
9:14 AM 1.4 °F -11.3 °F -10.7 °F 57% 30.25 in 10.0 mi SE 6.9 mph - N/A   Clear
9:34 AM 2.7 °F -12.9 °F -10.3 °F 55% 30.25 in 10.0 mi SE 10.4 mph - N/A   Clear
9:54 AM 3.9 °F -8.2 °F -9.4 °F 54% 30.25 in 10.0 mi SSE 6.9 mph - N/A   Clear
10:14 AM 5.2 °F -7.9 °F -9.0 °F 52% 30.25 in 10.0 mi SE 8.1 mph - N/A   Clear
10:34 AM 6.6 °F -3.7 °F -7.8 °F 52% 30.26 in 10.0 mi SSE 5.8 mph - N/A   Clear
10:54 AM 7.3 °F -6.2 °F -8.1 °F 49% 30.25 in 10.0 mi SSE 9.2 mph 16.1 mph N/A   Clear
11:14 AM 8.1 °F -7.7 °F -7.8 °F 49% 30.25 in 10.0 mi SSE 12.7 mph 16.1 mph N/A   Clear
11:34 AM 9.1 °F -5.6 °F -7.6 °F 47% 30.24 in 10.0 mi SSE 11.5 mph - N/A   Clear
11:54 AM 10.0 °F -3.7 °F -6.3 °F 48% 30.23 in 10.0 mi SSE 10.4 mph - N/A   Clear
12:14 PM 10.4 °F -4.8 °F -6.5 °F 47% 30.23 in 10.0 mi SSE 12.7 mph - N/A   Clear
12:34 PM 10.8 °F -2.8 °F -6.7 °F 45% 30.23 in 10.0 mi South 10.4 mph - N/A   Clear
12:54 PM 11.5 °F -2.7 °F -5.6 °F 46% 30.21 in 10.0 mi South 11.5 mph - N/A   Clear
1:14 PM 12.0 °F -1.3 °F -4.7 °F 47% 30.20 in 10.0 mi SSE 10.4 mph - N/A   Clear
1:34 PM 12.4 °F -0.8 °F -4.0 °F 48% 30.18 in 10.0 mi SSE 10.4 mph - N/A   Clear
1:54 PM 13.1 °F 0.1 °F -2.6 °F 50% 30.18 in 10.0 mi South 10.4 mph 16.1 mph N/A   Scattered Clouds
2:14 PM 13.1 °F 0.1 °F -3.5 °F 48% 30.16 in 10.0 mi SSE 10.4 mph 16.1 mph N/A   Mostly Cloudy
2:34 PM 13.6 °F 1.6 °F -2.9 °F 48% 30.16 in 10.0 mi SSE 9.2 mph - N/A   Mostly Cloudy
2:54 PM 14.9 °F 2.3 °F -1.7 °F 48% 30.15 in 10.0 mi SSE 10.4 mph - N/A   Mostly Cloudy
3:14 PM 14.7 °F 2.1 °F -2.2 °F 47% 30.14 in 10.0 mi SSE 10.4 mph 16.1 mph N/A   Scattered Clouds
3:34 PM 14.9 °F 1.6 °F -1.7 °F 48% 30.14 in 10.0 mi South 11.5 mph 18.4 mph N/A   Scattered Clouds
3:54 PM 15.8 °F 4.2 °F -0.9 °F 48% 30.12 in 10.0 mi SSE 9.2 mph 12.7 mph N/A   Scattered Clouds
4:14 PM 15.8 °F 2.7 °F -0.4 °F 49% 30.11 in 10.0 mi SSE 11.5 mph 16.1 mph N/A   Mostly Cloudy
4:34 PM 16.5 °F 3.0 °F -0.4 °F 47% 30.10 in 10.0 mi SSE 12.7 mph 18.4 mph N/A   Mostly Cloudy
4:54 PM 15.8 °F 2.7 °F -0.6 °F 49% 30.09 in 10.0 mi SSE 11.5 mph 16.1 mph N/A   Scattered Clouds
5:13 PM 16.0 °F 7.4 °F 0.3 °F 50% 30.09 in 10.0 mi SSE 5.8 mph - N/A   Mostly Cloudy
5:34 PM 16.3 °F 4.9 °F 1.0 °F 51% 30.10 in 10.0 mi SSE 9.2 mph - N/A   Mostly Cloudy
5:54 PM 16.5 °F 5.1 °F 1.8 °F 52% 30.09 in 10.0 mi SSE 9.2 mph - N/A   Scattered Clouds
6:15 PM 16.7 °F 8.3 °F 2.3 °F 53% 30.07 in 10.0 mi SE 5.8 mph - N/A   Scattered Clouds
6:34 PM 16.7 °F 7.2 °F 2.3 °F 53% 30.07 in 10.0 mi SE 6.9 mph - N/A   Scattered Clouds
6:54 PM 16.7 °F 7.2 °F 3.0 °F 55% 30.07 in 10.0 mi SE 6.9 mph - N/A   Scattered Clouds
7:15 PM 16.7 °F 6.2 °F 3.9 °F 57% 30.06 in 10.0 mi SE 8.1 mph - N/A   Clear
7:34 PM 16.7 °F 8.3 °F 4.1 °F 58% 30.06 in 10.0 mi ESE 5.8 mph - N/A   Clear
7:54 PM 16.7 °F 7.2 °F 4.1 °F 58% 30.06 in 10.0 mi SE 6.9 mph - N/A   Clear
8:14 PM 16.7 °F 7.2 °F 4.6 °F 59% 30.06 in 10.0 mi ESE 6.9 mph - N/A   Scattered Clouds
8:34 PM 16.5 °F 6.9 °F 5.0 °F 61% 30.05 in 10.0 mi SE 6.9 mph - N/A   Scattered Clouds
8:54 PM 16.7 °F 7.2 °F 5.0 °F 60% 30.05 in 10.0 mi ESE 6.9 mph - N/A   Clear
9:14 PM 16.3 °F 6.7 °F 5.2 °F 62% 30.05 in 10.0 mi SE 6.9 mph - N/A   Clear
9:34 PM 16.7 °F 8.3 °F 5.0 °F 60% 30.04 in 10.0 mi SE 5.8 mph - N/A   Clear
9:54 PM 16.9 °F 8.5 °F 5.2 °F 60% 30.04 in 10.0 mi SE 5.8 mph - N/A   Clear
10:14 PM 17.1 °F 10.0 °F 5.4 °F 60% 30.05 in 10.0 mi SE 4.6 mph - N/A   Clear
10:34 PM 17.6 °F 9.3 °F 5.4 °F 59% 30.04 in 10.0 mi SE 5.8 mph - N/A   Clear
10:54 PM 18.1 °F 10.0 °F 5.7 °F 58% 30.03 in 10.0 mi SSE 5.8 mph - N/A   Clear
11:14 PM 18.3 °F 11.5 °F 5.9 °F 58% 30.03 in 10.0 mi SE 4.6 mph - N/A   Clear
11:34 PM 19.2 °F 10.2 °F 5.9 °F 56% 30.02 in 10.0 mi SSE 6.9 mph - N/A   Clear
11:54 PM 19.4 °F 10.4 °F 6.6 °F 58% 30.02 in 10.0 mi SSE 6.9 mph - N/A   Clear